Location: Unspecified
(0.0000°N, 0.0000°E)
Time: 06:35:29
(UTC+00:00)

Vanguard 2 Rocket - Pass Details

Date: 22 October 2025
Orbit: 553 x 3288 km, 32.9° (Epoch: 15 November)

Event Time Altitude Azimuth Distance (km) Brightness Sun altitude
Rises 08:36:25 0° 304° (NW) 7,047 11.0 42.0°
Reaches altitude 10° 08:41:32 10° 304° (NW) 5,789 10.7 43.2°
Maximum altitude 08:58:12 85° 217° (SW) 2,037 9.5 47.2°
Drops below altitude 10° 09:07:33 10° 128° (SE) 3,457 10.7 49.5°
Sets 09:09:51 0° 127° (SE) 4,160 10.9 50.0°
